ANZ659 NZCH-NZQN

Flight info

Callsign ANZ659
Flight time N/A
Altitude 18000
Route GUPUT Y266 ELRUV
Aircraft A320/M-SDE3FGHIRWY/LB1

Departure

Time 2026-05-05 08:32
Airport Christchurch International Airport (NZCH)

Arrival

Time N/A
Airport Queenstown Airport (NZQN)
Time Latitude Longitude Altitude Speed Heading
2026-05-05 07:59 -43.48922 172.53719 113 ft 0 kts 129°
2026-05-05 08:23 -43.48911 172.53700 112 ft 4 kts 129°
2026-05-05 08:23 -43.48897 172.53676 112 ft 2 kts 129°
2026-05-05 08:23 -43.48880 172.53649 113 ft 4 kts 137°
2026-05-05 08:23 -43.48859 172.53626 113 ft 4 kts 154°
2026-05-05 08:24 -43.48842 172.53617 112 ft 0 kts 168°
2026-05-05 08:25 -43.48841 172.53614 114 ft 0 kts 214°
2026-05-05 08:27 -43.48842 172.53614 112 ft 0 kts 217°
2026-05-05 08:28 -43.48849 172.53605 113 ft 5 kts 219°
2026-05-05 08:28 -43.48897 172.53548 111 ft 13 kts 218°
2026-05-05 08:28 -43.48987 172.53445 110 ft 21 kts 219°
2026-05-05 08:28 -43.49124 172.53290 111 ft 29 kts 219°
2026-05-05 08:29 -43.49293 172.53093 114 ft 34 kts 220°
2026-05-05 08:29 -43.49487 172.52871 117 ft 39 kts 219°
2026-05-05 08:29 -43.49674 172.52660 117 ft 27 kts 220°
2026-05-05 08:30 -43.49786 172.52331 114 ft 0 kts 274°
2026-05-05 08:30 -43.49784 172.52296 114 ft 10 kts 277°
2026-05-05 08:30 -43.49717 172.52255 115 ft 17 kts 45°
2026-05-05 08:30 -43.49682 172.52295 114 ft 0 kts 41°
2026-05-05 08:31 -43.49643 172.52342 114 ft 37 kts 41°
2026-05-05 08:31 -43.49209 172.52843 114 ft 121 kts 39°
2026-05-05 08:31 -43.48418 172.53770 314 ft 166 kts 40°
2026-05-05 08:32 -43.47477 172.54859 951 ft 188 kts 40°
2026-05-05 08:32 -43.46380 172.55865 1615 ft 194 kts 24°
2026-05-05 08:32 -43.45112 172.56626 2202 ft 205 kts 21°
2026-05-05 08:32 -43.43761 172.57428 2792 ft 218 kts 21°
2026-05-05 08:33 -43.42329 172.58261 3460 ft 228 kts 20°
2026-05-05 08:33 -43.40811 172.58971 4218 ft 230 kts
2026-05-05 08:33 -43.39286 172.58385 4865 ft 241 kts 322°
2026-05-05 08:33 -43.38269 172.56476 5425 ft 259 kts 297°
2026-05-05 08:34 -43.37546 172.54115 5993 ft 276 kts 288°
2026-05-05 08:34 -43.37390 172.51415 6519 ft 299 kts 255°
2026-05-05 08:34 -43.38583 172.49093 7350 ft 305 kts 216°
2026-05-05 08:34 -43.40514 172.48005 8448 ft 301 kts 193°
2026-05-05 08:35 -43.42588 172.47623 9356 ft 303 kts 185°
2026-05-05 08:35 -43.44710 172.47411 10176 ft 307 kts 184°
2026-05-05 08:35 -43.46855 172.47639 10824 ft 316 kts 171°
2026-05-05 08:35 -43.49117 172.47991 11022 ft 339 kts 184°
2026-05-05 08:36 -43.51443 172.47184 11340 ft 351 kts 207°
2026-05-05 08:36 -43.53517 172.45392 11970 ft 353 kts 221°
2026-05-05 08:36 -43.55261 172.43017 12671 ft 353 kts 233°
2026-05-05 08:36 -43.56628 172.40209 13391 ft 354 kts 244°
2026-05-05 08:37 -43.57838 172.37238 14092 ft 357 kts 244°
2026-05-05 08:37 -43.59049 172.34238 14730 ft 360 kts 244°
2026-05-05 08:37 -43.60264 172.31197 15316 ft 364 kts 244°
2026-05-05 08:37 -43.61487 172.28117 15891 ft 368 kts 244°
2026-05-05 08:38 -43.62719 172.25009 16460 ft 372 kts 244°
2026-05-05 08:38 -43.63968 172.21858 17028 ft 376 kts 244°
2026-05-05 08:38 -43.65229 172.18674 17601 ft 380 kts 244°
2026-05-05 08:38 -43.66503 172.15452 18143 ft 385 kts 244°
2026-05-05 08:39 -43.67779 172.12226 18301 ft 387 kts 244°
2026-05-05 08:39 -43.69084 172.08925 18335 ft 394 kts 244°
2026-05-05 08:39 -43.70406 172.05587 18334 ft 396 kts 244°
2026-05-05 08:39 -43.71731 172.02242 18347 ft 397 kts 244°
2026-05-05 08:40 -43.73058 171.98887 18333 ft 399 kts 244°
2026-05-05 08:40 -43.74386 171.95517 18334 ft 399 kts 244°
2026-05-05 08:40 -43.75710 171.92146 18334 ft 398 kts 244°
2026-05-05 08:40 -43.77030 171.88776 18334 ft 398 kts 244°
2026-05-05 08:41 -43.78347 171.85414 18334 ft 398 kts 244°
2026-05-05 08:41 -43.79667 171.82044 18334 ft 398 kts 244°
2026-05-05 08:41 -43.80984 171.78678 18336 ft 398 kts 244°
2026-05-05 08:41 -43.82301 171.75306 18339 ft 398 kts 244°
2026-05-05 08:42 -43.83620 171.71917 18341 ft 399 kts 244°
2026-05-05 08:42 -43.84967 171.68564 18343 ft 399 kts 243°
2026-05-05 08:42 -43.86370 171.65241 18355 ft 400 kts 242°
2026-05-05 08:42 -43.87801 171.61941 18354 ft 400 kts 242°
2026-05-05 08:43 -43.89247 171.58643 18353 ft 400 kts 242°
2026-05-05 08:43 -43.90681 171.55347 18353 ft 400 kts 242°
2026-05-05 08:43 -43.92107 171.52032 18356 ft 400 kts 242°
2026-05-05 08:43 -43.93521 171.48715 18352 ft 400 kts 242°
2026-05-05 08:44 -43.94913 171.45431 18352 ft 400 kts 243°
2026-05-05 08:44 -43.96320 171.42103 18351 ft 400 kts 243°
2026-05-05 08:44 -43.97725 171.38778 18351 ft 400 kts 243°
2026-05-05 08:44 -43.99129 171.35447 18351 ft 400 kts 243°
2026-05-05 08:45 -44.00531 171.32118 18350 ft 400 kts 243°
2026-05-05 08:45 -44.01936 171.28782 18350 ft 400 kts 243°
2026-05-05 08:45 -44.03341 171.25452 18357 ft 400 kts 243°
2026-05-05 08:45 -44.04745 171.22120 18354 ft 400 kts 243°
2026-05-05 08:46 -44.06148 171.18780 18348 ft 400 kts 243°
2026-05-05 08:46 -44.07554 171.15436 18345 ft 400 kts 243°
2026-05-05 08:46 -44.08956 171.12095 18346 ft 400 kts 243°
2026-05-05 08:46 -44.10358 171.08748 18347 ft 400 kts 243°
2026-05-05 08:47 -44.11751 171.05409 18345 ft 400 kts 243°
2026-05-05 08:47 -44.13146 171.02060 18350 ft 400 kts 243°
2026-05-05 08:47 -44.14541 170.98719 18348 ft 399 kts 243°
2026-05-05 08:47 -44.15940 170.95377 18347 ft 399 kts 243°
2026-05-05 08:48 -44.17334 170.92031 18343 ft 399 kts 243°
2026-05-05 08:48 -44.18726 170.88681 18348 ft 400 kts 243°
2026-05-05 08:48 -44.20119 170.85327 18334 ft 400 kts 243°
2026-05-05 08:48 -44.21511 170.81964 18329 ft 401 kts 243°
2026-05-05 08:49 -44.22907 170.78593 18331 ft 401 kts 243°
2026-05-05 08:49 -44.24301 170.75224 18335 ft 402 kts 243°
2026-05-05 08:49 -44.25696 170.71846 18342 ft 402 kts 243°
2026-05-05 08:49 -44.27092 170.68472 18343 ft 401 kts 243°
2026-05-05 08:50 -44.28485 170.65100 18345 ft 401 kts 243°
2026-05-05 08:50 -44.29876 170.61719 18341 ft 401 kts 244°
2026-05-05 08:50 -44.31264 170.58347 18355 ft 401 kts 243°
2026-05-05 08:50 -44.32651 170.54973 18354 ft 401 kts 243°
2026-05-05 08:51 -44.34037 170.51602 18351 ft 400 kts 243°
2026-05-05 08:51 -44.35421 170.48228 18342 ft 401 kts 243°
2026-05-05 08:51 -44.36809 170.44834 18348 ft 401 kts 243°
2026-05-05 08:51 -44.38183 170.41465 18347 ft 402 kts 243°
2026-05-05 08:52 -44.39572 170.38056 18345 ft 402 kts 243°
2026-05-05 08:52 -44.40961 170.34651 18346 ft 402 kts 243°
2026-05-05 08:52 -44.42348 170.31260 18358 ft 402 kts 243°
2026-05-05 08:52 -44.43738 170.27857 18355 ft 402 kts 243°
2026-05-05 08:53 -44.45123 170.24456 18359 ft 402 kts 243°
2026-05-05 08:53 -44.46502 170.21056 18357 ft 402 kts 244°
2026-05-05 08:53 -44.47882 170.17647 18352 ft 402 kts 244°
2026-05-05 08:53 -44.49258 170.14244 18371 ft 402 kts 243°
2026-05-05 08:54 -44.50633 170.10835 18366 ft 402 kts 243°
2026-05-05 08:54 -44.52004 170.07433 18367 ft 401 kts 243°
2026-05-05 08:54 -44.53378 170.04028 18369 ft 401 kts 243°
2026-05-05 08:54 -44.54753 170.00616 18372 ft 401 kts 243°
2026-05-05 08:55 -44.56121 169.97215 18369 ft 401 kts 244°
2026-05-05 08:55 -44.57473 169.93851 18368 ft 401 kts 244°
2026-05-05 08:55 -44.58842 169.90442 18367 ft 401 kts 244°
2026-05-05 08:55 -44.60212 169.87029 18366 ft 401 kts 244°
2026-05-05 08:56 -44.61580 169.83617 18379 ft 401 kts 244°
2026-05-05 08:56 -44.62948 169.80200 18369 ft 401 kts 244°
2026-05-05 08:56 -44.64313 169.76788 18368 ft 401 kts 244°
2026-05-05 08:56 -44.65673 169.73377 18379 ft 401 kts 243°
2026-05-05 08:57 -44.67035 169.69961 18373 ft 400 kts 243°
2026-05-05 08:57 -44.68393 169.66554 18386 ft 400 kts 243°
2026-05-05 08:57 -44.69752 169.63139 18374 ft 400 kts 243°
2026-05-05 08:57 -44.71106 169.59732 18374 ft 399 kts 243°
2026-05-05 08:58 -44.72458 169.56325 18377 ft 399 kts 244°
2026-05-05 08:58 -44.73809 169.52910 18377 ft 399 kts 244°
2026-05-05 08:58 -44.75152 169.49506 18372 ft 399 kts 244°
2026-05-05 08:58 -44.76498 169.46095 18370 ft 399 kts 244°
2026-05-05 08:59 -44.77844 169.42683 18368 ft 399 kts 244°
2026-05-05 08:59 -44.79190 169.39269 18368 ft 399 kts 244°
2026-05-05 08:59 -44.80531 169.35855 18366 ft 399 kts 244°
2026-05-05 08:59 -44.81748 169.32362 18356 ft 396 kts 252°
2026-05-05 09:00 -44.82608 169.28697 18378 ft 394 kts 255°
2026-05-05 09:00 -44.83438 169.25016 18372 ft 394 kts 255°
2026-05-05 09:00 -44.84269 169.21338 18369 ft 394 kts 255°
2026-05-05 09:00 -44.85096 169.17662 18368 ft 394 kts 255°
2026-05-05 09:01 -44.85926 169.13973 18371 ft 394 kts 255°
2026-05-05 09:01 -44.86752 169.10292 18369 ft 394 kts 255°
2026-05-05 09:01 -44.87575 169.06615 18360 ft 394 kts 255°
2026-05-05 09:01 -44.88395 169.02942 18362 ft 394 kts 256°
2026-05-05 09:02 -44.89214 168.99244 18354 ft 394 kts 256°
2026-05-05 09:02 -44.90031 168.95550 18374 ft 394 kts 255°
2026-05-05 09:02 -44.90711 168.91824 18360 ft 391 kts 264°
2026-05-05 09:02 -44.90901 168.88028 18340 ft 385 kts 275°
2026-05-05 09:03 -44.90781 168.84310 18073 ft 374 kts 276°
2026-05-05 09:03 -44.90657 168.80736 17651 ft 367 kts 276°
2026-05-05 09:03 -44.90531 168.77110 17180 ft 363 kts 276°
2026-05-05 09:03 -44.90408 168.73564 16726 ft 360 kts 276°
2026-05-05 09:04 -44.90288 168.70065 16271 ft 356 kts 277°
2026-05-05 09:04 -44.90340 168.66661 15788 ft 348 kts 266°
2026-05-05 09:04 -44.90926 168.63388 15302 ft 343 kts 253°
2026-05-05 09:04 -44.91958 168.60310 14822 ft 342 kts 248°
2026-05-05 09:05 -44.93006 168.57373 14358 ft 338 kts 249°
2026-05-05 09:05 -44.94071 168.54368 13862 ft 338 kts 249°
2026-05-05 09:05 -44.95119 168.51394 13342 ft 339 kts 249°
2026-05-05 09:05 -44.96160 168.48446 12831 ft 339 kts 249°
2026-05-05 09:06 -44.97213 168.45460 12335 ft 335 kts 250°
2026-05-05 09:06 -44.98251 168.42510 11838 ft 334 kts 250°
2026-05-05 09:06 -44.99278 168.39578 11359 ft 332 kts 250°
2026-05-05 09:06 -45.00288 168.36696 10870 ft 330 kts 250°
2026-05-05 09:07 -45.01303 168.33805 10527 ft 325 kts 250°
2026-05-05 09:07 -45.02307 168.30982 10233 ft 320 kts 247°
2026-05-05 09:07 -45.03651 168.28445 9929 ft 327 kts 230°
2026-05-05 09:07 -45.05498 168.26457 9595 ft 332 kts 214°
2026-05-05 09:08 -45.07627 168.25291 9312 ft 335 kts 197°
2026-05-05 09:08 -45.09912 168.25068 9214 ft 321 kts 178°
2026-05-05 09:08 -45.12027 168.25613 9226 ft 299 kts 163°
2026-05-05 09:08 -45.13846 168.26795 9043 ft 282 kts 144°
2026-05-05 09:09 -45.15247 168.28655 8636 ft 273 kts 122°
2026-05-05 09:09 -45.16129 168.30967 8197 ft 264 kts 103°
2026-05-05 09:09 -45.16469 168.33418 7735 ft 245 kts 85°
2026-05-05 09:09 -45.16328 168.35785 7311 ft 240 kts 71°
2026-05-05 09:10 -45.15767 168.37974 6866 ft 233 kts 56°
2026-05-05 09:10 -45.15012 168.39990 6401 ft 231 kts 57°
2026-05-05 09:10 -45.14512 168.41330 6077 ft 225 kts 58°
2026-05-05 09:10 -45.13560 168.43879 5560 ft 218 kts 59°
2026-05-05 09:11 -45.13095 168.45129 5506 ft 207 kts 59°
2026-05-05 09:11 -45.12458 168.46846 5488 ft 188 kts 58°
2026-05-05 09:11 -45.11849 168.48477 5136 ft 185 kts 58°
2026-05-05 09:11 -45.11250 168.50076 4727 ft 183 kts 59°
2026-05-05 09:12 -45.10663 168.51637 4331 ft 176 kts 59°
2026-05-05 09:12 -45.10107 168.53117 3963 ft 164 kts 60°
2026-05-05 09:12 -45.09594 168.54481 3592 ft 152 kts 59°
2026-05-05 09:12 -45.09108 168.55772 3205 ft 145 kts 58°
2026-05-05 09:13 -45.08646 168.57002 2836 ft 139 kts 59°
2026-05-05 09:13 -45.08196 168.58201 2510 ft 137 kts 58°
2026-05-05 09:13 -45.07748 168.59393 2429 ft 138 kts 58°
2026-05-05 09:13 -45.07293 168.60598 2425 ft 140 kts 59°
2026-05-05 09:14 -45.06836 168.61815 2419 ft 140 kts 58°
2026-05-05 09:14 -45.06380 168.63022 2416 ft 139 kts 58°
2026-05-05 09:14 -45.05931 168.64209 2411 ft 140 kts 59°
2026-05-05 09:14 -45.05466 168.65444 2411 ft 140 kts 59°
2026-05-05 09:15 26.25113 50.66586 662 ft 158 kts 313°
2026-05-05 09:15 26.26063 50.66246 492 ft 146 kts 17°
2026-05-05 09:15 26.26656 50.66820 546 ft 149 kts 67°
2026-05-05 09:15 26.26707 50.67518 582 ft 0 kts 107°
2026-05-05 09:16 26.26505 50.68238 850 ft 0 kts 107°